Hibbing, MN

5:34 PM CST on February 27, 2017 (GMT -0600)
Chisholm-hibbing

Weather History for KHIB - August, 2013

Change the Weather History Date:

Sunday, August 4, 2013

  Actual Average Record
Temperature  
Mean Temperature 55 °F -  
Max Temperature 73 °F 76 °F 91 °F (2001)
Min Temperature 37 °F 50 °F 35 °F (1972)
Degree Days  
Heating Degree Days 10    
Growing Degree Days 5 (Base 50)    
Moisture  
Dew Point 43 °F    
Average Humidity 74    
Maximum Humidity 93    
Minimum Humidity 38    
Precipitation  
Precipitation 0.00 in - - ()
Sea Level Pressure  
Sea Level Pressure 30.20 in    
Wind  
Wind Speed 1 mph (SSW)    
Max Wind Speed 7 mph    
Max Gust Speed -    
Visibility 8 miles    
Events      
Averages and records for this station are not official NWS values.
T = Trace of Precipitation, MM = Missing Value Source: NWS Daily Summary

Daily Weather History Graph

Daily Weather History Graph

Search for Another Location

Airport or City:

Trip Planner

Search our weather history database for the weather conditions in past years. The results will help you decide how hot, cold, wet, or windy it might be!

Date:

Astronomy

Aug. 04, 2013 Rise Set
Actual Time 5:53 AM CDT 8:40 PM CDT
Civil Twilight 5:18 AM CDT 9:15 PM CDT
Nautical Twilight 4:33 AM CDT 10:00 PM CDT
Astronomical Twilight 3:39 AM CDT 10:53 PM CDT
Moon 3:53 AM CDT (8/4) 7:03 PM CDT (8/4)
Length of Visible Light 15h 57m
Length of Day
14h 46m
Waning Crescent, 4% of the Moon is Illuminated
Aug 4
Waning Crescent
Aug 6
New
Aug 14
First Quarter
Aug 20
Full
Aug 28
Last Quarter

Hourly Weather History & Observations

Time (CDT) Temp. Dew Point Humidity Pressure Visibility Wind Dir Wind Speed Gust Speed Precip Events Conditions
12:53 AM 43.0 °F 41.0 °F 93% 30.26 in 10.0 mi Calm Calm - N/A   Clear
1:53 AM 43.0 °F 41.0 °F 93% 30.27 in 1.5 mi Calm Calm - N/A   Clear
2:03 AM 42.8 °F 39.2 °F 87% 30.25 in 3.0 mi Calm Calm - N/A   Clear
2:53 AM 39.9 °F 37.9 °F 93% 30.27 in 8.0 mi Calm Calm - N/A   Clear
3:32 AM 39.2 °F 37.4 °F 93% 30.25 in 1.8 mi Calm Calm - N/A   Clear
3:43 AM 39.2 °F 37.4 °F 93% 30.24 in 3.0 mi Calm Calm - N/A   Clear
3:53 AM 39.9 °F 37.9 °F 93% 30.26 in 10.0 mi Calm Calm - N/A   Clear
4:07 AM 39.2 °F 37.4 °F 93% 30.24 in 1.8 mi Calm Calm - N/A   Clear
4:16 AM 39.2 °F 37.4 °F 93% 30.24 in 3.0 mi Calm Calm - N/A   Clear
4:27 AM 39.2 °F 37.4 °F 93% 30.24 in 10.0 mi Calm Calm - N/A   Partly Cloudy
4:53 AM 39.0 °F 37.0 °F 93% 30.26 in 10.0 mi Calm Calm - N/A   Clear
5:18 AM 37.4 °F 35.6 °F 93% 30.24 in 6.0 mi Calm Calm - N/A   Scattered Clouds
5:53 AM 39.0 °F 37.0 °F 93% 30.26 in 7.0 mi Calm Calm - N/A   Clear
6:45 AM 41.0 °F 37.4 °F 87% 30.24 in 10.0 mi Calm Calm - N/A   Partly Cloudy
6:53 AM 42.1 °F 39.0 °F 89% 30.26 in 10.0 mi Calm Calm - N/A   Partly Cloudy
7:53 AM 53.1 °F 48.9 °F 86% 30.26 in 10.0 mi Calm Calm - N/A   Clear
8:53 AM 62.1 °F 50.0 °F 65% 30.26 in 10.0 mi Calm Calm - N/A   Clear
9:53 AM 64.9 °F 48.0 °F 54% 30.25 in 10.0 mi Variable 3.5 mph - N/A   Clear
10:53 AM 66.0 °F 46.9 °F 50% 30.25 in 10.0 mi Variable 3.5 mph - N/A   Clear
11:53 AM 69.1 °F 46.0 °F 44% 30.23 in 10.0 mi South 6.9 mph - N/A   Scattered Clouds
12:53 PM 70.0 °F 45.0 °F 41% 30.22 in 10.0 mi Variable 3.5 mph - N/A   Partly Cloudy
1:53 PM 72.0 °F 46.9 °F 41% 30.19 in 10.0 mi Variable 5.8 mph - N/A   Partly Cloudy
2:53 PM 70.0 °F 45.0 °F 41% 30.18 in 10.0 mi Calm Calm - N/A   Scattered Clouds
3:53 PM 72.0 °F 46.9 °F 41% 30.16 in 10.0 mi Calm Calm - N/A   Mostly Cloudy
4:53 PM 73.0 °F 46.9 °F 39% 30.14 in 10.0 mi SSW 4.6 mph - N/A   Mostly Cloudy
5:53 PM 73.0 °F 46.0 °F 38% 30.11 in 10.0 mi West 5.8 mph - N/A   Mostly Cloudy
6:53 PM 71.1 °F 46.9 °F 42% 30.09 in 10.0 mi Variable 3.5 mph - N/A   Mostly Cloudy
7:53 PM 68.0 °F 50.0 °F 52% 30.07 in 10.0 mi Calm Calm - N/A   Clear
8:53 PM 55.9 °F 51.1 °F 84% 30.05 in 10.0 mi Calm Calm - N/A   Clear
9:53 PM 52.0 °F 50.0 °F 93% 30.05 in 10.0 mi Calm Calm - N/A   Clear
10:53 PM 55.0 °F 50.0 °F 83% 30.03 in 10.0 mi Calm Calm - N/A   Overcast
11:53 PM 57.0 °F 52.0 °F 83% 30.02 in 10.0 mi SE 4.6 mph - N/A   Overcast